Theta_e
294 287 285 287 293 295 294 293 292 295 300 299 297 297 300 301 299 299 303 303 304 310 320 319 319 319 317 318 321 319 320 321 320 320 320 320 322 324 324 325 326 325 324 322
291 286 291 293 293 294 294 292 291 295 299 299 297 296 300 301 301 301 300 300 304 316 317 317 317 317 315 318 320 320 321 320 321 320 320 321 323 325 324 325 325 324 322 319
292 294 296 293 291 291 291 291 291 292 297 300 297 295 296 302 302 303 305 304 306 315 315 316 316 315 315 318 319 320 320 319 321 320 320 320 321 321 321 323 322 321 321 319
295 299 296 292 290 292 288 294 295 295 294 288 298 286 294 299 301 303 304 305 303 315 316 316 315 314 314 318 320 321 321 320 321 318 319 318 317 316 318 320 322 319 320 319
291 294 293 293 294 294 291 295 295 295 293 290 292 289 291 299 299 301 300 302 304 316 315 315 315 315 315 317 318 320 321 320 321 320 318 318 317 317 318 317 317 318 318 320
291 296 294 293 297 297 298 295 295 295 291 285 291 290 287 294 299 302 304 305 305 315 315 317 316 316 315 317 318 320 320 319 320 320 319 318 315 315 313 315 315 315 317 318
288 289 293 296 291 295 294 290 283 283 281 281 293 290 291 298 302 303 304 305 306 315 315 315 315 315 315 316 318 319 319 319 320 320 318 317 315 314 313 314 314 314 314 316
282 281 289 294 291 291 292 291 284 279 280 284 294 289 292 303 305 306 307 306 312 314 315 315 315 315 316 316 316 318 318 319 320 320 319 318 316 314 314 314 314 314 314 315
286 286 297 294 294 295 292 288 294 289 290 285 289 293 299 303 304 306 304 306 309 313 314 314 315 316 316 316 316 316 316 318 320 320 320 318 317 315 314 314 313 314 315 316
293 287 295 297 295 294 294 297 288 290 281 279 286 290 291 297 300 305 305 304 308 314 314 315 314 316 317 317 316 316 317 317 318 320 320 319 318 317 316 315 314 315 314 315
292 290 291 295 290 290 291 290 291 292 288 281 280 286 299 300 301 301 303 305 306 310 314 315 315 316 318 317 317 316 316 316 316 318 320 320 318 317 317 315 315 317 316 316
291 289 287 290 295 297 295 291 290 285 283 287 286 286 302 302 303 303 304 306 306 306 312 315 316 316 317 317 317 317 317 317 317 317 319 319 318 317 316 316 316 317 316 316
289 286 283 287 290 294 293 295 296 291 289 285 281 285 302 303 302 304 304 306 305 307 307 314 317 316 317 316 317 317 318 317 318 318 317 318 318 316 315 316 317 317 317 315
294 286 283 280 285 289 286 289 294 291 284 285 285 289 297 300 301 302 301 303 304 306 304 309 316 317 316 317 318 318 318 318 318 318 318 317 318 318 316 317 317 318 318 317
289 283 286 287 288 287 286 286 289 288 290 288 290 291 296 299 300 300 301 305 306 307 308 307 306 316 318 317 317 318 318 318 318 318 318 317 317 319 318 318 318 318 319 320
290 284 287 285 289 288 285 287 287 288 289 288 289 289 295 298 300 298 305 306 306 308 310 311 311 311 313 319 318 318 318 318 319 318 318 319 319 319 318 318 318 317 318 319
288 285 283 281 287 286 281 286 287 288 289 288 284 290 295 294 299 302 302 303 304 306 308 309 309 310 311 313 320 318 318 319 318 317 318 319 319 319 319 319 318 317 315 316
287 285 285 281 284 275 287 293 292 289 292 293 295 297 298 299 301 302 303 303 304 306 308 308 308 309 310 312 312 320 320 319 318 317 317 318 320 319 319 319 318 313 302 297
289 287 281 279 278 284 287 291 292 291 291 296 295 297 297 299 301 299 303 304 305 306 307 307 308 309 311 310 311 310 318 319 318 317 316 317 318 318 317 308 297 295 292 290
288 288 283 281 277 274 289 294 296 294 287 297 297 296 296 296 289 294 301 303 305 306 306 305 307 309 307 306 308 309 309 314 315 316 316 316 316 314 300 295 292 290 288 286
281 282 280 280 280 284 293 295 297 283 286 297 298 297 296 293 295 299 302 305 306 304 304 304 304 305 303 303 301 298 299 298 300 298 300 299 297 295 292 290 289 287 286 285
281 280 279 281 277 277 296 295 290 294 295 295 297 296 296 297 298 299 303 303 301 298 299 300 300 300 299 299 297 294 293 294 296 296 295 293 293 292 291 288 286 285 285 283
282 286 284 284 283 293 297 297 300 298 296 295 296 296 296 295 296 301 301 298 295 293 293 295 296 297 296 295 294 292 292 292 292 291 290 290 290 289 288 286 284 284 284 283
290 294 288 288 292 294 296 299 300 299 298 299 298 297 299 299 300 299 296 293 290 290 290 291 293 292 291 291 291 291 291 290 289 288 287 287 286 286 286 285 285 284 283 282
290 293 290 290 293 294 297 298 299 299 300 299 298 299 299 299 295 294 291 290 289 286 286 286 285 289 289 289 289 289 288 288 285 284 283 282 282 281 280 281 283 282 282 281
292 291 288 287 295 294 295 299 301 300 298 297 297 297 293 293 291 291 288 287 285 283 283 283 283 284 285 288 287 287 287 285 283 282 281 280 279 279 279 278 278 281 280 281
Wind_Speed
9 7 11 11 13 14 11 13 17 13 12 11 11 14 13 9 4 7 9 9 10 14 16 17 16 15 13 9 9 7 6 5 4 2 3 4 6 6 6 4 9 11 5 6
10 21 15 13 12 17 19 20 20 19 14 15 15 17 16 11 6 7 8 9 10 16 17 17 17 14 10 11 9 8 6 6 4 3 2 2 6 7 9 7 9 9 7 6
17 8 18 17 17 18 18 17 12 17 14 13 13 20 13 11 6 10 15 9 8 22 21 18 17 15 14 13 12 10 8 7 4 6 4 4 6 5 6 10 8 8 8 6
17 15 19 20 20 18 18 12 16 18 9 8 0 19 16 16 19 15 18 18 9 17 19 16 17 15 15 13 11 11 10 8 7 6 7 9 7 9 6 9 11 10 10 8
17 8 13 20 18 20 15 11 13 13 11 7 4 12 5 12 21 19 9 12 13 22 23 21 19 18 15 14 11 9 11 10 9 7 6 8 7 6 8 7 15 13 10 10
17 11 8 6 12 12 6 4 8 9 2 10 10 13 4 10 16 16 16 13 14 23 20 18 16 17 15 13 12 10 11 11 10 9 8 11 12 11 9 10 10 10 8 7
13 21 17 11 10 13 8 7 1 3 2 6 8 12 12 16 20 23 19 9 11 22 19 19 20 17 17 17 15 12 12 11 12 10 9 9 12 14 14 13 10 12 8 8
9 5 17 11 16 8 6 8 7 8 6 3 8 8 8 10 17 20 13 7 16 19 18 20 20 18 19 18 14 16 15 12 13 12 11 10 13 9 10 13 10 9 9 11
4 7 3 8 20 10 6 10 9 10 4 4 4 7 11 15 22 12 6 4 13 16 17 19 18 18 19 17 16 14 16 15 13 12 13 12 12 11 11 14 12 11 11 9
2 3 4 11 14 12 11 4 8 6 13 7 5 5 3 17 13 5 15 6 11 15 17 17 18 18 17 18 15 12 14 16 14 12 13 12 13 14 11 11 13 13 11 12
1 1 5 6 2 15 5 11 2 3 9 5 2 5 6 4 7 10 15 9 9 6 17 18 17 17 19 17 16 14 13 14 15 15 12 13 14 13 14 13 13 14 13 14
6 1 1 7 10 9 9 7 9 9 5 3 8 7 7 10 7 10 11 19 14 9 8 14 18 17 17 18 17 17 14 15 15 15 13 13 13 13 13 15 15 15 14 13
7 4 1 2 13 15 2 1 3 9 7 10 4 4 6 13 11 15 5 18 15 13 12 5 15 17 17 17 17 17 15 14 16 16 16 14 15 15 14 15 16 16 15 15
4 3 5 3 3 7 7 11 8 10 4 6 6 6 10 10 7 10 5 3 9 7 6 8 12 17 17 19 19 18 18 16 15 17 17 17 17 16 16 14 13 15 15 15
5 4 6 6 9 10 12 10 3 8 12 3 5 7 6 10 10 17 4 13 16 19 22 18 10 3 18 17 16 16 17 17 15 18 17 17 15 14 14 14 14 13 13 14
3 5 7 7 5 8 14 12 8 9 10 5 5 10 3 4 8 5 14 13 16 19 19 18 20 18 17 16 17 18 18 18 18 18 18 16 16 15 15 15 12 12 10 10
3 1 3 4 7 10 6 7 11 11 8 4 5 8 11 7 11 13 13 13 13 14 16 16 16 16 16 15 9 18 18 17 18 17 16 18 17 16 15 14 13 11 8 6
3 2 1 3 5 4 6 8 7 5 4 3 8 13 15 10 5 14 13 12 12 12 14 15 15 17 17 15 11 4 10 20 18 17 16 15 17 18 15 14 15 9 8 10
6 2 1 1 1 8 10 4 4 3 7 8 8 8 9 11 5 6 13 12 9 10 9 10 11 15 15 17 17 9 11 13 15 17 17 15 13 14 14 9 11 10 13 12
12 5 4 0 3 5 0 11 8 5 3 7 8 7 8 9 5 5 11 14 11 10 8 11 13 11 14 16 17 14 11 7 2 8 8 5 9 12 13 13 13 11 13 14
12 6 9 5 3 6 2 10 7 2 2 1 1 4 4 4 2 5 7 10 10 8 10 10 11 10 11 12 11 13 12 13 8 10 11 12 13 14 14 15 12 12 15 18
9 7 5 4 3 7 3 6 2 5 4 3 5 5 7 6 7 7 7 8 9 9 9 10 9 9 9 10 7 8 10 9 10 11 13 14 13 11 13 17 14 13 14 16
5 7 6 8 7 5 3 1 5 2 3 3 8 7 7 6 6 7 7 10 11 12 10 9 8 8 9 10 6 6 5 9 12 14 14 14 15 13 13 15 16 13 12 12
1 7 1 3 3 4 4 2 4 7 4 8 9 8 7 6 5 6 8 9 8 8 9 9 9 8 8 9 8 7 7 9 12 16 15 13 14 15 13 11 10 10 10 9
1 2 3 2 9 15 9 6 6 4 10 11 9 9 7 8 8 7 6 7 6 5 5 9 9 8 7 8 9 9 9 11 13 14 14 15 13 15 15 15 11 11 12 10
2 7 1 1 0 8 6 3 11 8 10 9 9 9 12 11 9 7 5 6 8 7 6 8 10 9 9 9 9 10 11 13 14 14 12 12 12 13 13 15 19 33 29 30
Wind_Direction
209 204 215 206 219 238 258 258 263 277 289 299 291 304 302 237 256 240 247 223 222 189 147 128 127 126 119 118 130 153 170 152 144 137 180 201 184 154 144 132 133 117 113 116
235 230 217 224 234 232 235 246 260 276 285 293 306 304 296 285 239 260 240 234 222 130 138 136 133 134 130 137 150 160 160 160 169 153 155 185 175 175 164 150 144 128 120 117
232 232 209 220 231 242 245 241 250 252 255 255 305 294 299 292 258 258 265 246 152 153 147 147 147 144 140 148 162 166 172 164 146 133 128 116 112 119 141 165 143 129 129 124
239 233 234 215 232 226 245 248 254 266 268 280 304 288 289 297 289 254 245 247 192 165 151 148 149 151 152 152 163 169 168 157 148 145 141 147 147 148 154 152 151 137 131 126
234 226 228 237 230 217 235 225 248 268 235 255 261 274 275 288 286 269 256 243 196 165 160 160 160 155 152 147 166 168 157 162 158 163 153 137 127 115 128 132 143 139 129 129
258 283 264 251 273 260 235 245 242 260 104 261 252 237 217 242 268 295 280 253 182 166 158 150 149 146 150 146 166 168 159 168 170 170 163 153 134 135 130 145 146 146 146 144
254 253 266 261 290 288 221 218 179 338 256 242 208 256 251 255 247 248 280 187 137 155 152 148 151 156 156 158 165 164 165 165 176 176 171 162 153 156 153 150 156 156 148 148
198 264 216 231 216 212 213 184 159 205 206 247 233 245 251 283 261 257 261 200 137 149 153 158 157 157 155 160 165 169 171 170 176 173 179 168 162 162 168 171 166 164 167 176
250 226 18 237 217 204 217 237 203 236 271 98 247 287 312 356 334 6 268 103 146 152 157 158 156 156 156 161 174 175 175 174 181 176 176 171 170 168 175 176 175 177 175 176
224 279 262 310 193 226 193 197 195 201 233 248 235 227 187 327 2 24 309 343 162 164 157 161 161 157 160 163 165 173 176 180 183 180 178 175 173 174 176 176 178 180 185 185
308 204 299 10 148 194 187 220 108 11 248 201 256 265 206 213 309 0 322 346 9 185 170 166 166 163 158 160 167 174 179 171 178 190 183 180 177 178 175 184 187 184 180 188
324 144 61 285 357 328 226 208 175 209 224 250 219 258 208 152 99 333 351 328 346 11 222 164 164 160 159 163 166 176 176 180 178 184 193 187 179 177 175 182 191 191 190 190
317 326 146 68 8 341 353 227 262 216 198 234 172 260 100 59 42 325 102 301 338 347 10 154 157 166 166 169 170 174 181 185 178 180 186 195 185 187 189 186 188 190 191 193
334 322 33 77 151 210 308 2 25 353 224 219 229 267 113 79 321 233 302 156 296 327 10 18 196 169 172 175 175 176 177 179 176 180 185 191 195 190 196 197 194 189 194 194
10 334 353 349 335 331 319 326 33 331 294 327 315 309 52 123 229 276 338 22 15 19 13 356 13 239 175 180 178 179 182 182 174 183 186 194 192 193 190 196 203 201 202 204
340 331 345 323 334 296 293 281 277 280 286 269 296 287 332 219 221 13 61 45 26 25 10 7 2 5 352 185 183 180 182 187 185 181 191 185 188 191 193 195 191 192 199 189
41 39 360 301 332 331 302 246 258 265 276 273 289 302 297 310 24 65 55 44 31 24 10 7 359 354 353 357 268 180 185 179 189 190 181 186 186 189 191 194 195 200 183 160
357 11 36 286 355 257 255 319 303 205 314 350 57 36 26 25 43 71 49 37 24 22 16 5 357 344 337 337 331 295 213 181 185 190 189 181 180 188 184 180 188 163 106 107
219 187 16 167 206 301 310 338 33 69 48 26 49 42 27 6 1 40 28 22 19 51 24 4 352 340 348 353 330 283 208 202 187 187 190 187 176 179 175 146 115 110 110 99
204 176 139 120 191 235 202 358 21 1 111 17 47 33 20 21 40 325 358 3 30 55 30 7 351 351 355 355 353 360 19 64 259 206 181 179 175 156 119 116 114 108 101 101
191 181 192 206 266 282 180 296 317 22 186 244 163 82 34 62 178 285 353 41 49 42 25 7 356 360 0 358 12 25 20 46 39 50 70 75 81 91 97 100 96 105 107 108
165 161 181 180 215 248 309 239 240 202 241 218 113 89 53 22 3 354 26 44 37 31 26 9 354 352 3 4 19 48 47 41 53 68 74 79 82 94 104 103 101 101 104 106
168 181 161 182 206 265 17 153 280 246 264 107 96 80 70 28 5 17 25 33 21 14 5 356 356 358 13 9 10 61 69 86 88 79 76 80 86 87 93 103 108 105 104 105
5 307 310 47 288 283 286 231 311 32 44 100 87 79 63 65 47 33 35 29 22 357 8 9 4 26 27 26 34 54 74 85 93 99 93 87 88 90 86 85 85 94 101 105
252 157 338 322 326 327 349 360 302 304 85 83 71 72 58 47 48 49 32 19 358 347 3 43 14 18 41 51 55 61 72 85 85 86 87 87 83 83 80 72 73 75 64 82
320 30 229 251 51 276 177 295 306 106 81 71 76 74 59 49 45 58 40 24 4 349 4 55 44 36 26 62 63 71 82 94 94 90 86 88 89 88 88 89 86 78 79 77